Location: Sternwarte auf dem Internationalen Platz Vogelsang IP
(50.5721°N, 6.4398°E)
Time: 22:28:38
(UTC+01:00)

Transit 4A - All Passes

Search period start: 10 December 2025 00:00
Search period end: 20 December 2025 00:00
Orbit: 869 x 972 km, 66.8° (Epoch: 10 December)

Date Brightness Start Highest point End Pass type
(mag) Time Alt. Az. Time Alt. Az. Time Alt. Az.
10 Dec - 00:48:13 10° NW 00:51:50 16° N 00:55:30 10° NE night (unlit)
10 Dec - 02:35:31 10° NNW 02:40:19 25° NNE 02:45:13 10° E visible
10 Dec - 04:21:39 10° NW 04:27:38 72° NE 04:33:46 10° SE visible
10 Dec - 06:08:36 10° NW 06:13:30 26° WSW 06:18:28 10° SSW visible
10 Dec - 19:33:43 10° S 19:38:51 34° ESE 19:44:02 10° NE visible
10 Dec - 21:19:14 10° SW 21:24:55 56° NW 21:30:43 10° NNE visible
10 Dec - 23:08:08 10° WNW 23:12:32 21° NNW 23:16:58 10° NNE night (unlit)
11 Dec - 00:57:25 10° NNW 01:01:08 17° N 01:04:53 10° NE night (unlit)
11 Dec - 02:44:16 10° NNW 02:49:26 30° NNE 02:54:42 10° E visible
11 Dec - 04:30:27 10° NW 04:36:27 86° SW 04:42:36 10° SSE visible
11 Dec - 06:17:58 10° WNW 06:21:59 19° WSW 06:26:05 10° SSW visible
11 Dec - 19:41:56 10° S 19:47:27 47° ESE 19:53:02 10° NE visible
11 Dec - 21:28:20 10° WSW 21:33:52 43° NW 21:39:27 10° NNE visible
11 Dec - 23:17:40 10° WNW 23:21:45 19° NNW 23:25:52 10° NNE night (unlit)
12 Dec - 01:06:29 10° NNW 01:10:25 18° NNE 01:14:22 10° NE night (unlit)
12 Dec - 02:53:01 10° NNW 02:58:29 36° NE 03:04:04 10° ESE visible
12 Dec - 04:39:17 10° NW 04:45:12 64° WSW 04:51:15 10° SSE visible
12 Dec - 06:27:54 10° WNW 06:30:25 13° WSW 06:32:58 10° SW visible
12 Dec - 18:08:42 10° SE 18:10:57 12° ESE 18:13:12 10° ENE visible
12 Dec - 19:50:24 10° SSW 19:56:07 66° ESE 20:01:56 10° NE visible
12 Dec - 21:37:35 10° W 21:42:51 34° NW 21:48:13 10° NNE visible
12 Dec - 23:27:10 10° NW 23:31:00 17° N 23:34:52 10° NNE night (unlit)
13 Dec - 01:15:26 10° NNW 01:19:39 20° NNE 01:23:55 10° ENE night (unlit)
13 Dec - 03:01:45 10° NNW 03:07:29 46° NE 03:13:20 10° ESE visible
13 Dec - 04:48:10 10° NW 04:53:53 47° WSW 04:59:43 10° S visible
13 Dec - 18:15:32 10° SSE 18:19:21 18° ESE 18:23:13 10° ENE visible
13 Dec - 19:59:03 10° SW 20:04:51 89° SE 20:10:46 10° NE visible
13 Dec - 21:46:57 10° W 21:51:55 28° NNW 21:56:58 10° NNE visible
13 Dec - 23:36:36 10° NW 23:40:17 17° N 23:43:59 10° NE night (unlit)
14 Dec - 01:24:18 10° NNW 01:28:51 22° NNE 01:33:29 10° ENE night (unlit)
14 Dec - 03:10:30 10° NNW 03:16:24 59° NE 03:22:26 10° SE visible
14 Dec - 04:57:09 10° NW 05:02:29 34° WSW 05:07:55 10° S visible
14 Dec - 18:23:08 10° SSE 18:27:50 26° ESE 18:32:35 10° NE visible
14 Dec - 20:07:53 10° SW 20:13:40 69° NW 20:19:33 10° NE visible
14 Dec - 21:56:23 10° WNW 22:01:03 24° NNW 22:05:45 10° NNE visible
14 Dec - 23:45:55 10° NW 23:49:34 16° N 23:53:15 10° NE night (unlit)
15 Dec - 01:33:05 10° NNW 01:38:01 26° NNE 01:43:01 10° E night (unlit)
15 Dec - 03:19:15 10° NW 03:25:16 77° NE 03:31:25 10° SE night (unlit)
15 Dec - 05:06:18 10° WNW 05:11:02 24° WSW 05:15:50 10° SSW visible
15 Dec - 18:31:09 10° S 18:36:23 37° ESE 18:41:41 10° NE visible
15 Dec - 20:16:52 10° WSW 20:22:33 52° NW 20:28:18 10° NNE visible
15 Dec - 22:05:54 10° WNW 22:10:14 21° NNW 22:14:36 10° NNE visible
15 Dec - 23:55:05 10° NNW 23:58:51 17° N 00:02:40 10° NE night (unlit)
16 Dec - 01:41:52 10° NNW 01:47:07 31° NNE 01:52:28 10° E night (unlit)
16 Dec - 03:28:02 10° NW 03:34:03 81° SW 03:40:12 10° SSE night (unlit)
16 Dec - 05:15:45 10° WNW 05:19:31 17° WSW 05:23:19 10° SW night (unlit)
16 Dec - 18:39:25 10° SSW 18:45:00 51° ESE 18:50:40 10° NE visible
16 Dec - 20:26:02 10° WSW 20:31:29 41° NW 20:37:03 10° NNE visible
16 Dec - 22:15:26 10° WNW 22:19:27 19° NNW 22:23:31 10° NNE visible
17 Dec - 00:04:07 10° NNW 00:08:07 18° NNE 00:12:11 10° NE night (unlit)
17 Dec - 01:50:36 10° NNW 01:56:09 38° NE 02:01:49 10° ESE night (unlit)
17 Dec - 03:36:53 10° NW 03:42:47 60° WSW 03:48:48 10° SSE night (unlit)
17 Dec - 05:26:01 10° W 05:27:55 12° W 05:29:51 10° WSW night (unlit)
17 Dec - 17:05:40 10° SE 17:08:26 14° ESE 17:11:14 10° ENE visible
17 Dec - 18:47:55 10° SSW 18:53:42 71° ESE 18:59:33 10° NE visible
17 Dec - 20:35:18 10° W 20:40:30 33° NW 20:45:48 10° NNE visible
17 Dec - 22:24:55 10° NW 22:28:42 17° N 22:32:33 10° NNE visible
18 Dec - 00:13:02 10° NNW 00:17:22 20° NNE 00:21:44 10° ENE night (unlit)
18 Dec - 01:59:19 10° NNW 02:05:07 49° NE 02:11:03 10° ESE night (unlit)
18 Dec - 03:45:48 10° NW 03:51:26 43° WSW 03:57:12 10° S night (unlit)
18 Dec - 17:12:47 10° SSE 17:16:52 20° ESE 17:20:59 10° ENE visible
18 Dec - 18:56:38 10° SW 19:02:27 86° NW 19:08:22 10° NE visible
18 Dec - 20:44:41 10° W 20:49:35 27° NNW 20:54:35 10° NNE visible
18 Dec - 22:34:19 10° NW 22:38:00 17° N 22:41:42 10° NE visible
19 Dec - 00:21:52 10° NNW 00:26:33 23° NNE 00:31:17 10° ENE night (unlit)
19 Dec - 02:08:04 10° NNW 02:14:01 63° NE 02:20:07 10° SE night (unlit)
19 Dec - 03:54:49 10° NW 04:00:02 31° WSW 04:05:21 10° S night (unlit)
19 Dec - 17:20:30 10° SSE 17:25:22 28° ESE 17:30:17 10° NE visible
19 Dec - 19:05:30 10° SW 19:11:16 65° NW 19:17:09 10° NE visible
19 Dec - 20:54:09 10° WNW 20:58:43 23° NNW 21:03:22 10° NNE visible
19 Dec - 22:43:35 10° NW 22:47:17 17° N 22:51:01 10° NE visible
